,,,PA_Meas_PMT16A,,PR_Meas_QMR101_102,,RH_Meas_QMH101,,SR_Meas_QMS101,,TA_Meas_QMH101,,GenWind,,GenWind,
date,time,status,PA,status,PR,status,RH,status,SR,status,TA,status,DirAvg,status,SpdAvg,
2010-08-27, 00:00:04,VALID,1001.26,VALID,0,VALID,90.8535,VALID,0,VALID,23.2524,VALID,109,VALID,1.21563,
2010-08-27, 00:01:04,VALID,1001.26,VALID,0,VALID,90.9451,VALID,0,VALID,23.2329,VALID,109,VALID,1.13828,
2010-08-27, 00:02:04,VALID,1001.25,VALID,0,VALID,91.0366,VALID,0,VALID,23.2134,VALID,110,VALID,0.936328,
2010-08-27, 00:03:04,VALID,1001.24,VALID,0,VALID,91.1282,VALID,0,VALID,23.2134,VALID,110,VALID,0.638672,
2010-08-27, 00:04:04,VALID,1001.24,VALID,0,VALID,91.09,VALID,0,VALID,23.1939,VALID,110,VALID,0.526953,
2010-08-27, 00:05:04,VALID,1001.24,VALID,0,VALID,91.0824,VALID,0,VALID,23.1744,VALID,110,VALID,0.316406,
2010-08-27, 00:06:04,VALID,1001.23,VALID,0,VALID,91.0671,VALID,0,VALID,23.1744,VALID,110,VALID,0.262109,
2010-08-27, 00:07:04,VALID,1001.25,VALID,0,VALID,91.0519,VALID,0,VALID,23.1336,VALID,110,VALID,0.00195313,
2010-08-27, 00:08:04,VALID,1001.22,VALID,0,VALID,91.1053,VALID,0,VALID,23.1141,VALID,110,VALID,0.0726563,
2010-08-27, 00:09:04,VALID,1001.22,VALID,0,VALID,91.3037,VALID,0,VALID,23.1141,VALID,110,VALID,0.387109,
2010-08-27, 00:10:04,VALID,1001.25,VALID,0,VALID,91.441,VALID,0,VALID,23.1141,VALID,110,VALID,0.441016,
2010-08-27, 00:11:04,VALID,1001.23,VALID,0,VALID,91.3723,VALID,0.112286,VALID,23.0556,VALID,110,VALID,0.229297,
2010-08-27, 00:12:04,VALID,1001.24,VALID,0,VALID,91.4181,VALID,0.112286,VALID,23.0361,VALID,110,VALID,0,
2010-08-27, 00:13:04,VALID,1001.22,VALID,0,VALID,91.5707,VALID,0,VALID,23.0361,VALID,110,VALID,0,
2010-08-27, 00:14:04,VALID,1001.2,VALID,0,VALID,91.8454,VALID,0,VALID,23.0751,VALID,110,VALID,0.2375,
2010-08-27, 00:15:04,VALID,1001.19,VALID,0,VALID,91.9751,VALID,0.112286,VALID,23.0946,VALID,59,VALID,0.619141,
2010-08-27, 00:16:04,VALID,1001.17,VALID,0,VALID,91.9445,VALID,0,VALID,23.1336,VALID,47,VALID,0.333984,
2010-08-27, 00:17:04,VALID,1001.15,VALID,0,VALID,91.7691,VALID,0.112286,VALID,23.1336,VALID,47,VALID,0.271875,
2010-08-27, 00:18:04,VALID,1001.14,VALID,0,VALID,91.5478,VALID,0,VALID,23.1336,VALID,47,VALID,0.181641,
2010-08-27, 00:19:04,VALID,1001.13,VALID,0,VALID,91.38,VALID,0,VALID,23.1141,VALID,47,VALID,0.162109,
2010-08-27, 00:20:04,VALID,1001.11,VALID,0,VALID,91.3266,VALID,0,VALID,23.1354,VALID,47,VALID,0,
2010-08-27, 00:21:04,VALID,1001.13,VALID,0,VALID,91.3113,VALID,0,VALID,23.1176,VALID,47,VALID,0,
2010-08-27, 00:22:04,VALID,1001.11,VALID,0,VALID,91.2274,VALID,0,VALID,23.0573,VALID,47,VALID,0,
2010-08-27, 00:23:04,VALID,1001.13,VALID,0,VALID,91.4181,VALID,0,VALID,23.0183,VALID,47,VALID,0.248047,
2010-08-27, 00:24:04,VALID,1001.09,VALID,0,VALID,91.6241,VALID,0,VALID,23.0183,VALID,47,VALID,0.505078,
2010-08-27, 00:25:04,VALID,1001.1,VALID,0,VALID,91.8377,VALID,0,VALID,22.9988,VALID,48,VALID,0.649219,
2010-08-27, 00:26:04,VALID,1001.1,VALID,0,VALID,91.9445,VALID,0,VALID,22.9988,VALID,47,VALID,0.710547,
2010-08-27, 00:27:04,VALID,1001.09,VALID,0,VALID,91.9522,VALID,0,VALID,23.0006,VALID,48,VALID,0.544141,
2010-08-27, 00:28:04,VALID,1001.09,VALID,0,VALID,91.8225,VALID,0,VALID,22.9615,VALID,48,VALID,0.566797,
2010-08-27, 00:29:04,VALID,1001.08,VALID,0,VALID,91.7767,VALID,0,VALID,22.9013,VALID,70,VALID,0.850781,
2010-08-27, 00:30:04,VALID,1001.08,VALID,0,VALID,91.708,VALID,0,VALID,22.8818,VALID,75,VALID,0.883594,
2010-08-27, 00:31:05,VALID,1001.11,VALID,0,VALID,91.7309,VALID,0,VALID,22.8427,VALID,77,VALID,0.689453,
2010-08-27, 00:32:05,VALID,1001.1,VALID,0,VALID,91.8377,VALID,0,VALID,22.8232,VALID,77,VALID,0.744531,
2010-08-27, 00:33:05,VALID,1001.1,VALID,0,VALID,91.9064,VALID,0,VALID,22.8037,VALID,75,VALID,0.569922,
2010-08-27, 00:34:05,VALID,1001.1,VALID,0,VALID,91.8911,VALID,0,VALID,22.7842,VALID,71,VALID,0.622266,
2010-08-27, 00:35:05,VALID,1001.08,VALID,0,VALID,91.8606,VALID,0,VALID,22.7647,VALID,71,VALID,0.598437,
2010-08-27, 00:36:05,VALID,1001.09,VALID,0,VALID,91.8683,VALID,0,VALID,22.7452,VALID,71,VALID,0.354297,
2010-08-27, 00:37:05,VALID,1001.1,VALID,0,VALID,91.8225,VALID,0,VALID,22.6867,VALID,71,VALID,0.334766,
2010-08-27, 00:38:05,VALID,1001.05,VALID,0,VALID,91.7996,VALID,0,VALID,22.6477,VALID,30,VALID,0.501562,
2010-08-27, 00:39:05,VALID,1001.06,VALID,0,VALID,92.0361,VALID,0,VALID,22.6672,VALID,330,VALID,0.888672,
2010-08-27, 00:40:05,VALID,1001.07,VALID,0,VALID,92.1811,VALID,0,VALID,22.6672,VALID,342,VALID,0.828906,
2010-08-27, 00:41:05,VALID,1001.07,VALID,0,VALID,92.2345,VALID,0,VALID,22.6672,VALID,5,VALID,0.759766,
2010-08-27, 00:42:05,VALID,1001.06,VALID,0,VALID,92.2726,VALID,0,VALID,22.6672,VALID,9,VALID,0.610156,
2010-08-27, 00:43:05,VALID,1001.07,VALID,0,VALID,92.3108,VALID,0,VALID,22.6477,VALID,9,VALID,0.35,
2010-08-27, 00:44:05,VALID,1001.07,VALID,0,VALID,92.3184,VALID,0,VALID,22.6672,VALID,9,VALID,0.210547,
2010-08-27, 00:45:05,VALID,1001.03,VALID,0,VALID,92.3413,VALID,0,VALID,22.6477,VALID,9,VALID,0.63125,
2010-08-27, 00:46:05,VALID,1001.04,VALID,0,VALID,92.3489,VALID,0,VALID,22.6087,VALID,9,VALID,0.387109,
2010-08-27, 00:47:05,VALID,1001.05,VALID,0,VALID,92.3337,VALID,0,VALID,22.5892,VALID,9,VALID,0,
2010-08-27, 00:48:05,VALID,1001.04,VALID,0,VALID,92.3108,VALID,0,VALID,22.5714,VALID,9,VALID,0,
2010-08-27, 00:49:05,VALID,1001.05,VALID,0,VALID,92.3184,VALID,0,VALID,22.5306,VALID,9,VALID,0.108984,
2010-08-27, 00:50:05,VALID,1001.02,VALID,0,VALID,92.3489,VALID,0,VALID,22.5111,VALID,9,VALID,0.376953,
2010-08-27, 00:51:05,VALID,1000.99,VALID,0,VALID,92.4176,VALID,0,VALID,22.5111,VALID,9,VALID,0.497266,
2010-08-27, 00:52:05,VALID,1000.99,VALID,0,VALID,92.5473,VALID,0,VALID,22.4916,VALID,9,VALID,0.610937,
2010-08-27, 00:53:05,VALID,1000.99,VALID,0,VALID,92.5931,VALID,0,VALID,22.5111,VALID,9,VALID,0.449609,
2010-08-27, 00:54:05,VALID,1000.97,VALID,0,VALID,92.6694,VALID,0,VALID,22.4721,VALID,9,VALID,0.353906,
2010-08-27, 00:55:05,VALID,1000.95,VALID,0,VALID,92.7304,VALID,0,VALID,22.4916,VALID,9,VALID,0.180469,
2010-08-27, 00:56:05,VALID,1000.97,VALID,0,VALID,92.7609,VALID,0,VALID,22.4721,VALID,9,VALID,0.271484,
2010-08-27, 00:57:05,VALID,1000.92,VALID,0,VALID,92.822,VALID,0,VALID,22.4721,VALID,9,VALID,0.0476562,
2010-08-27, 00:58:05,VALID,1000.89,VALID,0,VALID,92.8754,VALID,0,VALID,22.4721,VALID,9,VALID,0.476172,
2010-08-27, 00:59:05,VALID,1000.89,VALID,0,VALID,92.944,VALID,0,VALID,22.4916,VALID,9,VALID,0.423438,
2010-08-27, 01:00:05,VALID,1000.86,VALID,0,VALID,92.9898,VALID,0,VALID,22.5111,VALID,9,VALID,0.437109,
2010-08-27, 01:01:05,VALID,1000.9,VALID,0,VALID,92.9974,VALID,0,VALID,22.5111,VALID,348,VALID,0.549219,
2010-08-27, 01:02:05,VALID,1000.88,VALID,0,VALID,93.0127,VALID,0,VALID,22.5306,VALID,343,VALID,0.477344,
2010-08-27, 01:03:05,VALID,1000.86,VALID,0,VALID,93.028,VALID,0,VALID,22.5714,VALID,343,VALID,0.433594,
2010-08-27, 01:04:05,VALID,1000.87,VALID,0,VALID,93.0051,VALID,0,VALID,22.5306,VALID,360,VALID,0.701172,
2010-08-27, 01:05:05,VALID,1000.86,VALID,0,VALID,92.9059,VALID,0,VALID,22.4916,VALID,29,VALID,0.775781,
2010-08-27, 01:06:05,VALID,1000.84,VALID,0,VALID,92.8067,VALID,0,VALID,22.4721,VALID,29,VALID,0.779688,
2010-08-27, 01:07:05,VALID,1000.86,VALID,0,VALID,92.7685,VALID,0,VALID,22.4721,VALID,33,VALID,0.998438,
2010-08-27, 01:08:05,VALID,1000.85,VALID,0,VALID,92.7838,VALID,0,VALID,22.5111,VALID,46,VALID,1.22891,
2010-08-27, 01:09:05,VALID,1000.82,VALID,0,VALID,92.6694,VALID,0,VALID,22.4916,VALID,50,VALID,1.06406,
2010-08-27, 01:10:05,VALID,1000.83,VALID,0,VALID,92.6007,VALID,0,VALID,22.4916,VALID,50,VALID,0.785156,
2010-08-27, 01:11:05,VALID,1000.81,VALID,0,VALID,92.5702,VALID,0,VALID,22.4916,VALID,50,VALID,0.910937,
2010-08-27, 01:12:05,VALID,1000.8,VALID,0,VALID,92.5854,VALID,0,VALID,22.4916,VALID,50,VALID,0.852344,
2010-08-27, 01:13:05,VALID,1000.78,VALID,0,VALID,92.5702,VALID,0,VALID,22.4721,VALID,63,VALID,1.1043,
2010-08-27, 01:14:05,VALID,1000.79,VALID,0,VALID,92.616,VALID,0,VALID,22.4916,VALID,65,VALID,0.908203,
2010-08-27, 01:15:05,VALID,1000.75,VALID,0,VALID,92.6388,VALID,0,VALID,22.5323,VALID,65,VALID,0.688672,
2010-08-27, 01:16:05,VALID,1000.74,VALID,0,VALID,92.5778,VALID,0,VALID,22.4916,VALID,65,VALID,0.425781,
2010-08-27, 01:17:05,VALID,1000.72,VALID,0,VALID,92.5397,VALID,0,VALID,22.4526,VALID,65,VALID,0.273828,
2010-08-27, 01:18:05,VALID,1000.69,VALID,0,VALID,92.4939,VALID,0,VALID,22.4526,VALID,65,VALID,0.285156,
2010-08-27, 01:19:05,VALID,1000.72,VALID,0,VALID,92.4557,VALID,0,VALID,22.4331,VALID,65,VALID,0.504297,
2010-08-27, 01:20:05,VALID,1000.71,VALID,0,VALID,92.4176,VALID,0,VALID,22.3941,VALID,56,VALID,0.612109,
2010-08-27, 01:21:05,VALID,1000.7,VALID,0,VALID,92.41,VALID,0,VALID,22.3941,VALID,47,VALID,0.870703,
2010-08-27, 01:22:05,VALID,1000.64,VALID,0,VALID,92.4176,VALID,0,VALID,22.4136,VALID,47,VALID,0.944141,
2010-08-27, 01:23:05,VALID,1000.7,VALID,0,VALID,92.3566,VALID,0,VALID,22.3941,VALID,47,VALID,0.977734,
2010-08-27, 01:24:05,VALID,1000.65,VALID,0,VALID,92.3871,VALID,0,VALID,22.3941,VALID,47,VALID,0.987891,
2010-08-27, 01:25:05,VALID,1000.66,VALID,0,VALID,92.3794,VALID,0,VALID,22.4136,VALID,52,VALID,1.02578,
2010-08-27, 01:26:05,VALID,1000.65,VALID,0,VALID,92.2574,VALID,0,VALID,22.3941,VALID,55,VALID,1.2918,
2010-08-27, 01:27:05,VALID,1000.67,VALID,0,VALID,92.1429,VALID,0,VALID,22.3746,VALID,57,VALID,1.32695,
2010-08-27, 01:28:05,VALID,1000.65,VALID,0,VALID,92.0437,VALID,0,VALID,22.3746,VALID,52,VALID,1.15742,
2010-08-27, 01:29:05,VALID,1000.66,VALID,0,VALID,92.0209,VALID,0,VALID,22.3941,VALID,45,VALID,0.732031,
2010-08-27, 01:30:05,VALID,1000.67,VALID,0,VALID,91.9217,VALID,0,VALID,22.3551,VALID,40,VALID,0.345313,
2010-08-27, 01:31:05,VALID,1000.67,VALID,0,VALID,91.853,VALID,0,VALID,22.3356,VALID,31,VALID,0.355469,
2010-08-27, 01:32:05,VALID,1000.67,VALID,0,VALID,91.8377,VALID,0,VALID,22.3356,VALID,25,VALID,0.401953,
2010-08-27, 01:33:05,VALID,1000.68,VALID,0,VALID,91.9522,VALID,0,VALID,22.3551,VALID,339,VALID,0.433984,
2010-08-27, 01:34:05,VALID,1000.66,VALID,0,VALID,92.0285,VALID,0,VALID,22.3746,VALID,339,VALID,0.410156,
2010-08-27, 01:35:05,VALID,1000.67,VALID,0,VALID,92.0666,VALID,0,VALID,22.3941,VALID,347,VALID,0.503125,
2010-08-27, 01:36:05,VALID,1000.62,VALID,0,VALID,92.0514,VALID,0,VALID,22.3941,VALID,354,VALID,0.617578,
2010-08-27, 01:37:05,VALID,1000.61,VALID,0,VALID,91.9827,VALID,0,VALID,22.3941,VALID,1,VALID,0.492188,
2010-08-27, 01:38:05,VALID,1000.63,VALID,0,VALID,91.9064,VALID,0,VALID,22.3941,VALID,35,VALID,0.589453,
2010-08-27, 01:39:05,VALID,1000.62,VALID,0,VALID,91.8759,VALID,0,VALID,22.3941,VALID,35,VALID,0.721484,
2010-08-27, 01:40:05,VALID,1000.63,VALID,0,VALID,91.708,VALID,0,VALID,22.3746,VALID,35,VALID,0.576563,
2010-08-27, 01:41:05,VALID,1000.61,VALID,0,VALID,91.6088,VALID,0,VALID,22.3746,VALID,35,VALID,0.464453,
2010-08-27, 01:42:05,VALID,1000.6,VALID,0,VALID,91.6088,VALID,0,VALID,22.3568,VALID,35,VALID,0.514063,
2010-08-27, 01:43:05,VALID,1000.63,VALID,0,VALID,91.647,VALID,0,VALID,22.3356,VALID,35,VALID,0.313672,
2010-08-27, 01:44:05,VALID,1000.6,VALID,0,VALID,91.7309,VALID,0,VALID,22.3551,VALID,35,VALID,0.476172,
2010-08-27, 01:45:05,VALID,1000.59,VALID,0,VALID,91.8683,VALID,0,VALID,22.3746,VALID,35,VALID,0.269531,
2010-08-27, 01:46:05,VALID,1000.57,VALID,0,VALID,91.9293,VALID,0,VALID,22.3746,VALID,35,VALID,0.310937,
2010-08-27, 01:47:05,VALID,1000.56,VALID,0,VALID,91.9369,VALID,0,VALID,22.3746,VALID,35,VALID,0.109766,
2010-08-27, 01:48:05,VALID,1000.51,VALID,0,VALID,91.9903,VALID,0,VALID,22.3551,VALID,35,VALID,0.241797,
2010-08-27, 01:49:05,VALID,1000.52,VALID,0,VALID,92.0437,VALID,0,VALID,22.3551,VALID,35,VALID,0.0617188,
2010-08-27, 01:50:05,VALID,1000.49,VALID,0,VALID,92.059,VALID,0,VALID,22.3551,VALID,35,VALID,0,
2010-08-27, 01:51:05,VALID,1000.51,VALID,0,VALID,92.1124,VALID,0,VALID,22.3356,VALID,35,VALID,0.394141,
2010-08-27, 01:52:05,VALID,1000.51,VALID,0,VALID,92.1277,VALID,0,VALID,22.3356,VALID,35,VALID,0.583203,
2010-08-27, 01:53:05,VALID,1000.46,VALID,0,VALID,92.0971,VALID,0,VALID,22.3356,VALID,35,VALID,0.937109,
2010-08-27, 01:54:05,VALID,1000.47,VALID,0,VALID,92.1506,VALID,0,VALID,22.3161,VALID,31,VALID,1.25586,
2010-08-27, 01:55:05,VALID,1000.48,VALID,0,VALID,92.059,VALID,0,VALID,22.3356,VALID,28,VALID,0.908203,
2010-08-27, 01:56:05,VALID,1000.48,VALID,0,VALID,91.8683,VALID,0,VALID,22.3551,VALID,35,VALID,0.898047,
2010-08-27, 01:57:05,VALID,1000.42,VALID,0,VALID,91.6012,VALID,0,VALID,22.3356,VALID,34,VALID,1.06758,
2010-08-27, 01:58:05,VALID,1000.46,VALID,0,VALID,91.4715,VALID,0,VALID,22.3161,VALID,34,VALID,0.948047,
2010-08-27, 01:59:05,VALID,1000.4,VALID,0,VALID,91.2579,VALID,0,VALID,22.2966,VALID,31,VALID,0.916016,
2010-08-27, 02:00:05,VALID,1000.38,VALID,0,VALID,91.1892,VALID,0,VALID,22.3178,VALID,31,VALID,1.12969,
2010-08-27, 02:01:05,VALID,1000.35,VALID,0,VALID,91.1587,VALID,0,VALID,22.2966,VALID,30,VALID,1.21602,
2010-08-27, 02:02:05,VALID,1000.31,VALID,0,VALID,91.0748,VALID,0,VALID,22.2966,VALID,29,VALID,1.27695,
2010-08-27, 02:03:05,VALID,1000.34,VALID,0,VALID,90.9756,VALID,0,VALID,22.2771,VALID,25,VALID,1.25273,
2010-08-27, 02:04:05,VALID,1000.33,VALID,0,VALID,90.9985,VALID,0,VALID,22.2576,VALID,24,VALID,1.12461,
2010-08-27, 02:05:05,VALID,1000.31,VALID,0,VALID,91.0671,VALID,0,VALID,22.2381,VALID,20,VALID,0.885547,
2010-08-27, 02:06:05,VALID,1000.3,VALID,0,VALID,91.1129,VALID,0,VALID,22.2381,VALID,17,VALID,1.02305,
2010-08-27, 02:07:05,VALID,1000.28,VALID,0,VALID,91.1892,VALID,0,VALID,22.2381,VALID,8,VALID,1.15313,
2010-08-27, 02:08:05,VALID,1000.29,VALID,0,VALID,91.09,VALID,0,VALID,22.2186,VALID,9,VALID,0.888281,
2010-08-27, 02:09:05,VALID,1000.28,VALID,0,VALID,90.9985,VALID,0,VALID,22.199,VALID,9,VALID,0.703125,
2010-08-27, 02:10:05,VALID,1000.27,VALID,0,VALID,91.09,VALID,0,VALID,22.16,VALID,9,VALID,0.534766,
2010-08-27, 02:11:05,VALID,1000.27,VALID,0,VALID,91.1587,VALID,0,VALID,22.1795,VALID,9,VALID,0.443359,
2010-08-27, 02:12:05,VALID,1000.24,VALID,0,VALID,91.235,VALID,0,VALID,22.16,VALID,12,VALID,0.697266,
2010-08-27, 02:13:05,VALID,1000.25,VALID,0,VALID,91.2731,VALID,0.112286,VALID,22.16,VALID,26,VALID,0.839453,
2010-08-27, 02:14:05,VALID,1000.19,VALID,0,VALID,91.1892,VALID,0,VALID,22.1795,VALID,28,VALID,1.03398,
2010-08-27, 02:15:05,VALID,1000.18,VALID,0,VALID,91.2121,VALID,0,VALID,22.1584,VALID,28,VALID,1.07695,
2010-08-27, 02:16:05,VALID,1000.19,VALID,0,VALID,91.2579,VALID,0,VALID,22.1389,VALID,28,VALID,0.514453,
2010-08-27, 02:17:05,VALID,1000.18,VALID,0,VALID,91.3037,VALID,0,VALID,22.1389,VALID,28,VALID,0.609766,
2010-08-27, 02:18:05,VALID,1000.18,VALID,0,VALID,91.3723,VALID,0,VALID,22.1405,VALID,28,VALID,0.338281,
2010-08-27, 02:19:05,VALID,1000.15,VALID,0,VALID,91.4028,VALID,0,VALID,22.121,VALID,28,VALID,0,
2010-08-27, 02:20:05,VALID,1000.15,VALID,0,VALID,91.4181,VALID,0,VALID,22.0803,VALID,28,VALID,0,
2010-08-27, 02:21:05,VALID,1000.14,VALID,0,VALID,91.5097,VALID,0,VALID,22.1015,VALID,28,VALID,0.675781,
2010-08-27, 02:22:05,VALID,1000.12,VALID,0,VALID,91.6317,VALID,0,VALID,22.082,VALID,28,VALID,0.90625,
2010-08-27, 02:23:05,VALID,1000.13,VALID,0,VALID,91.7385,VALID,0,VALID,22.0625,VALID,28,VALID,0.817969,
2010-08-27, 02:24:05,VALID,1000.16,VALID,0,VALID,91.8454,VALID,0,VALID,22.043,VALID,28,VALID,0.691406,
2010-08-27, 02:25:05,VALID,1000.17,VALID,0,VALID,91.9293,VALID,0,VALID,22.043,VALID,28,VALID,0.558594,
2010-08-27, 02:26:05,VALID,1000.17,VALID,0,VALID,92.0971,VALID,0,VALID,22.0625,VALID,28,VALID,0.648438,
2010-08-27, 02:27:05,VALID,1000.16,VALID,0,VALID,92.2497,VALID,0,VALID,22.082,VALID,14,VALID,0.791797,
2010-08-27, 02:28:05,VALID,1000.17,VALID,0,VALID,92.326,VALID,0,VALID,22.1015,VALID,14,VALID,0.767578,
2010-08-27, 02:29:05,VALID,1000.15,VALID,0,VALID,92.3794,VALID,0,VALID,22.1389,VALID,19,VALID,0.716016,
2010-08-27, 02:30:05,VALID,1000.15,VALID,0,VALID,92.326,VALID,0,VALID,22.2186,VALID,39,VALID,0.749609,
2010-08-27, 02:31:05,VALID,1000.14,VALID,0,VALID,92.0895,VALID,0,VALID,22.2966,VALID,38,VALID,0.889844,
2010-08-27, 02:32:05,VALID,1000.14,VALID,0,VALID,91.7614,VALID,0,VALID,22.3551,VALID,37,VALID,0.605078,
2010-08-27, 02:33:05,VALID,1000.14,VALID,0,VALID,91.3494,VALID,0,VALID,22.3746,VALID,38,VALID,0.854688,
2010-08-27, 02:34:05,VALID,1000.12,VALID,0,VALID,91.0443,VALID,0,VALID,22.3941,VALID,38,VALID,0.74375,
2010-08-27, 02:35:05,VALID,1000.15,VALID,0,VALID,90.678,VALID,0,VALID,22.4136,VALID,38,VALID,0.279297,
2010-08-27, 02:36:05,VALID,1000.13,VALID,0,VALID,90.35,VALID,0,VALID,22.3941,VALID,38,VALID,0,
2010-08-27, 02:37:05,VALID,1000.13,VALID,0,VALID,90.3576,VALID,0,VALID,22.3746,VALID,38,VALID,0,
2010-08-27, 02:38:05,VALID,1000.1,VALID,0,VALID,90.6017,VALID,0,VALID,22.3746,VALID,38,VALID,0,
2010-08-27, 02:39:05,VALID,1000.11,VALID,0,VALID,90.9298,VALID,0,VALID,22.4331,VALID,99,VALID,0.408203,
2010-08-27, 02:40:05,VALID,1000.11,VALID,0,VALID,90.7238,VALID,0,VALID,22.5128,VALID,99,VALID,0.469531,
2010-08-27, 02:41:05,VALID,1000.06,VALID,0,VALID,90.4263,VALID,0,VALID,22.5306,VALID,98,VALID,0.734766,
2010-08-27, 02:42:05,VALID,1000.07,VALID,0,VALID,90.1516,VALID,0,VALID,22.5501,VALID,81,VALID,0.596484,
2010-08-27, 02:43:05,VALID,1000.06,VALID,0,VALID,89.9685,VALID,0,VALID,22.6087,VALID,97,VALID,0.466797,
2010-08-27, 02:44:05,VALID,1000.03,VALID,0,VALID,89.7701,VALID,0,VALID,22.6087,VALID,125,VALID,0.440234,
2010-08-27, 02:45:05,VALID,1000.07,VALID,0,VALID,89.9456,VALID,0,VALID,22.6087,VALID,119,VALID,0.760547,
2010-08-27, 02:46:05,VALID,1000.05,VALID,0,VALID,89.7777,VALID,0,VALID,22.6477,VALID,112,VALID,0.571484,
2010-08-27, 02:47:05,VALID,1000.01,VALID,0,VALID,90.0524,VALID,0,VALID,22.6264,VALID,110,VALID,0.828125,
2010-08-27, 02:48:05,VALID,1000.01,VALID,0,VALID,89.8998,VALID,0,VALID,22.6867,VALID,109,VALID,0.708594,
2010-08-27, 02:49:05,VALID,999.987,VALID,0,VALID,89.7549,VALID,0,VALID,22.6867,VALID,88,VALID,0.736719,
2010-08-27, 02:50:05,VALID,1000,VALID,0,VALID,89.6557,VALID,0,VALID,22.6672,VALID,89,VALID,0.472266,
2010-08-27, 02:51:05,VALID,1000.01,VALID,0,VALID,89.7701,VALID,0,VALID,22.6477,VALID,134,VALID,0.866406,
2010-08-27, 02:52:05,VALID,1000.03,VALID,0,VALID,90.1745,VALID,0,VALID,22.6477,VALID,134,VALID,0.696484,
2010-08-27, 02:53:05,VALID,1000.01,VALID,0,VALID,90.4491,VALID,0,VALID,22.6282,VALID,134,VALID,0.459766,
2010-08-27, 02:54:05,VALID,1000.03,VALID,0,VALID,90.4644,VALID,0,VALID,22.6299,VALID,134,VALID,0.441406,
2010-08-27, 02:55:05,VALID,1000.03,VALID,0,VALID,90.4491,VALID,0,VALID,22.5892,VALID,134,VALID,0.369141,
2010-08-27, 02:56:05,VALID,1000.02,VALID,0,VALID,90.6399,VALID,0,VALID,22.5892,VALID,134,VALID,0.210547,
2010-08-27, 02:57:05,VALID,1000.03,VALID,0,VALID,90.7009,VALID,0,VALID,22.5696,VALID,134,VALID,0.0121094,
2010-08-27, 02:58:05,VALID,1000.02,VALID,0,VALID,90.8383,VALID,0,VALID,22.5306,VALID,134,VALID,0,
2010-08-27, 02:59:05,VALID,999.981,VALID,0,VALID,91.029,VALID,0,VALID,22.5306,VALID,134,VALID,0.51875,
2010-08-27, 03:00:05,VALID,999.982,VALID,0,VALID,90.9374,VALID,0,VALID,22.5306,VALID,84,VALID,0.951563,
2010-08-27, 03:01:05,VALID,999.967,VALID,0,VALID,90.8917,VALID,0,VALID,22.5501,VALID,87,VALID,0.623438,
2010-08-27, 03:02:05,VALID,999.998,VALID,0,VALID,90.6704,VALID,0,VALID,22.5306,VALID,143,VALID,0.441016,
2010-08-27, 03:03:05,VALID,1000.02,VALID,0,VALID,90.4949,VALID,0,VALID,22.5111,VALID,143,VALID,0.4,
2010-08-27, 03:04:05,VALID,1000.02,VALID,0,VALID,90.5636,VALID,0,VALID,22.4916,VALID,143,VALID,0.226172,
2010-08-27, 03:05:05,VALID,999.991,VALID,0,VALID,90.8077,VALID,0,VALID,22.4916,VALID,143,VALID,0.307422,
2010-08-27, 03:06:05,VALID,999.978,VALID,0,VALID,90.9146,VALID,0,VALID,22.5128,VALID,143,VALID,0.233203,
2010-08-27, 03:07:05,VALID,1000.01,VALID,0,VALID,90.7238,VALID,0,VALID,22.4916,VALID,143,VALID,0,
2010-08-27, 03:08:05,VALID,1000.02,VALID,0,VALID,90.4415,VALID,0,VALID,22.5323,VALID,137,VALID,0.848047,
2010-08-27, 03:09:05,VALID,1000.01,VALID,0,VALID,90.0295,VALID,0,VALID,22.5501,VALID,160,VALID,0.665234,
2010-08-27, 03:10:05,VALID,999.989,VALID,0,VALID,89.5641,VALID,0,VALID,22.6087,VALID,160,VALID,0.579687,
2010-08-27, 03:11:05,VALID,999.981,VALID,0,VALID,88.9843,VALID,0,VALID,22.6867,VALID,161,VALID,0.938281,
2010-08-27, 03:12:05,VALID,999.95,VALID,0,VALID,88.6257,VALID,0,VALID,22.7647,VALID,190,VALID,1.12227,
2010-08-27, 03:13:05,VALID,999.961,VALID,0,VALID,87.9314,VALID,0,VALID,22.8623,VALID,183,VALID,1.13359,
2010-08-27, 03:14:05,VALID,999.964,VALID,0,VALID,87.382,VALID,0,VALID,22.9598,VALID,183,VALID,0.907031,
2010-08-27, 03:15:04,VALID,999.949,VALID,0,VALID,86.7869,VALID,0,VALID,22.9988,VALID,150,VALID,1.15,
2010-08-27, 03:16:04,VALID,999.963,VALID,0,VALID,86.3597,VALID,0,VALID,23.0183,VALID,154,VALID,0.776953,
2010-08-27, 03:17:04,VALID,999.964,VALID,0,VALID,86.2376,VALID,0,VALID,22.9988,VALID,157,VALID,1.13594,
2010-08-27, 03:18:04,VALID,999.977,VALID,0,VALID,86.2986,VALID,0,VALID,22.9988,VALID,167,VALID,1.25,
2010-08-27, 03:19:04,VALID,1000,VALID,0,VALID,86.3749,VALID,0,VALID,22.9793,VALID,166,VALID,1.1793,
2010-08-27, 03:20:04,VALID,999.966,VALID,0,VALID,86.4817,VALID,0,VALID,22.9208,VALID,161,VALID,1.26719,
2010-08-27, 03:21:04,VALID,999.964,VALID,0,VALID,86.8785,VALID,0,VALID,22.9208,VALID,170,VALID,1.25078,
2010-08-27, 03:22:04,VALID,999.961,VALID,0,VALID,86.9548,VALID,0,VALID,22.9013,VALID,158,VALID,1.38242,
2010-08-27, 03:23:04,VALID,999.943,VALID,0,VALID,87.0006,VALID,0,VALID,22.8623,VALID,160,VALID,1.33008,
2010-08-27, 03:24:04,VALID,999.967,VALID,0,VALID,87.2371,VALID,0,VALID,22.8232,VALID,165,VALID,1.14414,
2010-08-27, 03:25:04,VALID,999.943,VALID,0,VALID,87.382,VALID,0,VALID,22.825,VALID,167,VALID,1.4043,
2010-08-27, 03:26:04,VALID,999.927,VALID,0,VALID,87.382,VALID,0,VALID,22.8037,VALID,159,VALID,1.22969,
2010-08-27, 03:27:04,VALID,999.907,VALID,0,VALID,87.2905,VALID,0,VALID,22.8427,VALID,154,VALID,0.911719,
2010-08-27, 03:28:04,VALID,999.93,VALID,0,VALID,87.2905,VALID,0,VALID,22.8232,VALID,146,VALID,0.939844,
2010-08-27, 03:29:04,VALID,999.896,VALID,0,VALID,87.3897,VALID,0,VALID,22.8037,VALID,128,VALID,0.917578,
2010-08-27, 03:30:04,VALID,999.878,VALID,0,VALID,87.672,VALID,0,VALID,22.786,VALID,126,VALID,0.749219,
2010-08-27, 03:31:04,VALID,999.911,VALID,0,VALID,87.9237,VALID,0,VALID,22.7452,VALID,126,VALID,0.64375,
2010-08-27, 03:32:04,VALID,999.95,VALID,0,VALID,88.0763,VALID,0,VALID,22.7257,VALID,126,VALID,0.53125,
2010-08-27, 03:33:04,VALID,999.916,VALID,0,VALID,88.1068,VALID,0,VALID,22.6867,VALID,126,VALID,0.3,
2010-08-27, 03:34:04,VALID,999.903,VALID,0,VALID,88.145,VALID,0,VALID,22.6282,VALID,126,VALID,0.0582031,
2010-08-27, 03:35:04,VALID,999.921,VALID,0,VALID,88.4197,VALID,0,VALID,22.5696,VALID,126,VALID,0,
2010-08-27, 03:36:04,VALID,999.928,VALID,0,VALID,89.4191,VALID,0,VALID,22.5306,VALID,23,VALID,0,
2010-08-27, 03:37:04,VALID,999.951,VALID,0,VALID,89.7396,VALID,0,VALID,22.5501,VALID,270,VALID,0,
2010-08-27, 03:38:04,VALID,999.959,VALID,0,VALID,89.8769,VALID,0,VALID,22.5696,VALID,223,VALID,0.430078,
2010-08-27, 03:39:04,VALID,999.964,VALID,0,VALID,89.7243,VALID,0,VALID,22.5501,VALID,223,VALID,0.218359,
2010-08-27, 03:40:04,VALID,999.976,VALID,0,VALID,89.7854,VALID,0,VALID,22.5501,VALID,223,VALID,0,
2010-08-27, 03:41:04,VALID,999.984,VALID,0,VALID,89.9914,VALID,0,VALID,22.5501,VALID,238,VALID,0.591016,
2010-08-27, 03:42:04,VALID,999.973,VALID,0,VALID,90.0829,VALID,0,VALID,22.5484,VALID,238,VALID,0.482422,
2010-08-27, 03:43:04,VALID,999.993,VALID,0,VALID,89.9074,VALID,0,VALID,22.6282,VALID,240,VALID,0.734766,
2010-08-27, 03:44:04,VALID,999.989,VALID,0,VALID,89.5717,VALID,0,VALID,22.6477,VALID,241,VALID,0.365625,
2010-08-27, 03:45:04,VALID,999.96,VALID,0,VALID,89.3505,VALID,0,VALID,22.6884,VALID,241,VALID,0,
2010-08-27, 03:46:04,VALID,999.978,VALID,0,VALID,89.1903,VALID,0,VALID,22.6282,VALID,241,VALID,0,
2010-08-27, 03:47:04,VALID,999.992,VALID,0,VALID,89.114,VALID,0,VALID,22.6087,VALID,241,VALID,0,